Regional Weather Roundup
Issued by NWS

Home | Current Version | Previous Version | Text Only | Print | Product List | Glossary On
Versions: 1 2 3 4 5 6 7 8 9 10 11 12 13 14 15 16 17 18 19 20 21 22 23 24 25 26 27 28 29 30 31 32 33 34 35 36 37 38 39 40 41 42 43 44 45 46 47 48 49 50
000
ASUS43 KMPX 241001
RWRMN
WEATHER ROUNDUP FOR MINNESOTA
NATIONAL WEATHER SERVICE TWIN CITIES/CHANHASSEN MN
500 AM CDT SUN MAY 24 2015


NOTE: "FAIR" INDICATES FEW OR NO CLOUDS BELOW 12,000 FEET WITH NO
SIGNIFICANT WEATHER AND/OR OBSTRUCTIONS TO VISIBILITY. N/A MEANS
CURRENT SKY AND/OR WEATHER CONDITIONS ARE NOT AVAILABLE.

MNZ060>063-068>070-241100-
   Twin Cities Metro

CITY           SKY/WX    TMP DP  RH WIND       PRES   REMARKS
TWIN CITIES    CLOUDY    61  48  62 E6        30.08F
ST PAUL        CLOUDY    61  47  59 CALM      30.09F
CRYSTAL        CLOUDY    61  49  64 E5        30.07F
BLAINE         CLOUDY    59  54  82 E5        30.08F
LAKEVILLE      CLOUDY    57  48  72 CALM      30.08F
EDEN PRAIRIE   CLOUDY    61  47  59 E8        30.06F
SOUTH ST PAUL  CLOUDY    61  46  58 CALM      30.08F
LAKE ELMO      MOCLDY    59  48  67 CALM      30.10F
$$
MNZ001>005-007-008-013>017-022>024-027-028-241100-
   Northwest Minnesota

CITY           SKY/WX    TMP DP  RH WIND       PRES   REMARKS
BEMIDJI        PTCLDY    42  39  89 CALM      30.12F
HALLOCK        CLEAR     48  45  87 S8        30.08F
ROSEAU         CLEAR     50  43  76 S3        30.10S
WARROAD        CLEAR     52  45  76 SW3       30.10F
THIEF RVR FALL CLEAR     46  43  87 CALM      30.10F
CROOKSTON      CLEAR     48  43  81 CALM      30.11S
FOSSTON        PTCLDY    46  39  76 CALM      30.11F
DETROIT LAKES  MOCLDY    54  46  76 E3        30.12R
MOORHEAD       PTCLDY    54  46  76 E5        30.10R
PARK RAPIDS    CLOUDY    55  47  74 NE3       30.11F
MAHNOMEN       FAIR      51  45  80 E6        30.10F
$$
MNZ006-009>011-018-025>026-241100-
   North Central Minnesota

CITY           SKY/WX    TMP DP  RH WIND       PRES   REMARKS
BAUDETTE       CLEAR     49  43  80 S3        30.10F
FLAG ISLAND    CLEAR     55  46  71 S6        30.08S
INTL FALLS     CLEAR     44  41  89 SW3       30.11F
WASKISH        PTCLDY    46  45  93 CALM      30.12F
BIG FORK       PTCLDY    43  39  87 CALM      30.13F
LONGVILLE      MOCLDY    45  45 100 CALM      30.12S
GRAND RAPIDS   PTCLDY    45  39  81 CALM      30.13F
CRANE LAKE     PTCLDY    39  37  93 CALM      30.15S
ORR            PTCLDY    48  43  81 CALM      30.12F
COOK           PTCLDY    43  41  93 CALM      30.14F
WALKER         FAIR      47  45  93 NE3       30.11F
$$
MNZ012-019>021-037-241100-
   Northeast Minnesota

CITY           SKY/WX    TMP DP  RH WIND       PRES   REMARKS
DULUTH         MOCLDY    47  42  83 CALM      30.14F
ELY            PTCLDY    45  41  87 SW3       30.15S
HIBBING        PTCLDY    39  36  89 CALM      30.14F
EVELETH        PTCLDY    39  37  93 CALM      30.15F
DULUTH HARBOR  PTCLDY    52  46  82 CALM      30.14F
TWO HARBORS    PTCLDY    54  45  71 W5        30.12F
GRAND MARAIS     N/A     48  39  71 W5        30.11R
G MARAIS ARPRT CLEAR     55  39  54 W5        30.15R
$$
MNZ029>031-032-039>041-046>048-054>057-064-241100-
   West Central Minnesota

CITY           SKY/WX    TMP DP  RH WIND       PRES   REMARKS
FERGUS FALLS   CLOUDY    61  46  59 E5        30.09S
WHEATON        CLOUDY    54  46  76 E3        30.08F
MORRIS         CLOUDY    57  50  77 E7        30.05F
ALEXANDRIA     CLOUDY    59  45  59 E8        30.09F
ELBOW LAKE     CLOUDY    60  47  64 E7        30.06F
WADENA         CLOUDY    55  46  71 CALM      30.11R
GLENWOOD       CLOUDY    57  46  67 E8        30.08F
APPLETON       CLOUDY    57  48  72 E7        30.04F
BENSON         CLOUDY    57  46  67 E5        30.05F
ORTONVILLE     CLOUDY    57  48  72 E7        30.04F
MADISON        CLOUDY    57  48  72 E5        30.03F
WILLMAR        FAIR      61  50  67 E7        30.07F
$$
MNZ033>034-036-042>043-049>051-058-059-241100-
   Central Minnesota

CITY           SKY/WX    TMP DP  RH WIND       PRES   REMARKS
ST CLOUD       CLOUDY    58  47  66 E5        30.07F
SAUK CENTRE    CLOUDY    58  47  68 E7        30.08F
PAYNESVILLE    CLOUDY    56  47  71 NE3       30.07F
AITKIN         CLOUDY    54  46  76 CALM      30.11S
PINE RIVER     CLOUDY    54  48  82 CALM      30.14S
BRAINERD       CLOUDY    56  47  71 CALM      30.11F
STAPLES        CLOUDY    55  46  71 CALM      30.11S
LONG PRAIRIE   CLOUDY    55  46  71 NE5       30.09F
LITTLE FALLS   CLOUDY    59  45  58 CALM      30.09F
LITCHFIELD     CLOUDY    57  54  88 CALM      30.07F
BUFFALO        CLOUDY    59  48  67 E5        30.08F
MAPLE LAKE     CLOUDY    60  52  73 E3        30.08F
$$
MNZ037-044-045-052-053-241100-
   East Central Minnesota

CITY           SKY/WX    TMP DP  RH WIND       PRES   REMARKS
PRINCETON      CLOUDY    59  48  67 NE5       30.09F
MORA           MOCLDY    54  45  71 CALM      30.13S
CAMBRIDGE      CLOUDY    61  48  63 CALM      30.08F
RUSH CITY      CLOUDY    58  48  69 E3        30.11F
MOOSE LAKE     CLOUDY    52  46  82 CALM      30.12F
HINCKLEY       CLOUDY    55  50  82 CALM      30.12F
CLOQUET        MOCLDY    48  43  81 N3        30.13F
MCGREGOR       CLOUDY    52  48  87 CALM      30.14S
$$
MNZ071>073-080-081-089-090-097-098-241100-
   Southwest Minnesota

CITY           SKY/WX    TMP DP  RH WIND       PRES   REMARKS
MONTEVIDEO     LGT RAIN  57  52  82 SE3       30.05F
GRANITE FALLS  CLOUDY    59  52  76 E5        30.05F
CANBY          LGT RAIN  56  51  81 CALM      30.04F
MARSHALL       CLOUDY    57  52  82 CALM      30.02F
REDWOOD FALLS  CLOUDY    59  52  77 E3        30.04F
OLIVIA         CLOUDY    57  48  72 E3        30.04F
PIPESTONE      CLOUDY    57  55  94 E5        30.02F
WINDOM         LGT RAIN  59  55  88 CALM      30.04F
WORTHINGTON    CLOUDY    57  54  88 E9        30.02F
JACKSON        DRIZZLE   59  55  88 E6        30.04F
TRACY          CLOUDY    60  57  90 SE3       30.04F
SLAYTON        CLOUDY    58  58 100 CALM      30.03F FOG
$$
MNZ065>067-074>077-082>085-091>093-241100-
   South Central Minnesota

CITY           SKY/WX    TMP DP  RH WIND       PRES   REMARKS
MANKATO        CLOUDY    61  52  72 E7        30.06F
NEW ULM        CLOUDY    61  48  63 E7        30.05F
ST JAMES       CLOUDY    63  55  77 E5        30.06F
FAIRMONT       CLOUDY    61  52  72 S12       30.05F
GLENCOE        CLOUDY    60  50  71 E5        30.06F
FARIBAULT      CLOUDY    61  52  72 CALM      30.07F
OWATONNA       CLOUDY    61  50  67 SE5       30.07F
WASECA         CLOUDY    59  50  72 SE7       30.08F
ALBERT LEA     CLOUDY    63  50  63 SE7       30.07F
$$
MNZ078>079-086>088-094>096-241100-
   Southeast Minnesota

CITY           SKY/WX    TMP DP  RH WIND       PRES   REMARKS
ROCHESTER      CLOUDY    60  50  69 SE8       30.09F
RED WING       CLOUDY    57  48  72 CALM      30.08F
STANTON        CLOUDY    59  50  71 NE3       30.07F
DODGE CENTER   CLOUDY    61  52  72 SE6       30.08F
WINONA         CLOUDY    59  52  77 CALM      30.10F
AUSTIN         CLOUDY    61  50  67 SE7       30.08S
PRESTON        CLOUDY    60  50  69 SE6       30.09F
$$
ABBREVIATIONS USED IN REMARKS
   TC - TEMPERATURES IN CELSIUS
  WCI - WIND CHILL INDEX
   HX - HEAT INDEX
  VSB - VISIBILITY
$$


USA.gov is the U.S. government's official web portal to all federal, state and local government web resources and services.